< < Back
Terminal Aerodrome Forecast


Current Version              Previous Versions:   1  2  3  4  5  6  7  8  9  

Terminal Aerodrome Forecast

998
FTUS42 KFFC 200500
TAFPDK
TAF
KPDK 200520Z 2006/2106 08006KT P6SM SCT025
     FM200900 08006KT P6SM BKN012
     FM201500 09010KT P6SM BKN030
     FM201800 10010G15KT P6SM SCT060
     FM210000 08003KT P6SM SCT250=

Latest METAR

948
SAUS70 KWBC 200800
MTRPDK
METAR KPDK 200753Z AUTO VRB03KT 9SM FEW021 19/16 A3013 RMK AO2 SLP189
T01890156


USA.gov is the U.S. government's official web portal to all federal, state and local government web resources and services.